SCP
4 4 4 4 4 4 3 3 2 2 2 2 1 1 1 2 2 2 2 1 1 1 0 0 0 0 1 0 0 0 0 0 1 1 1 1 2 2
6 6 6 5 5 4 4 3 3 2 2 2 2 2 2 2 2 2 2 2 1 1 0 0 0 0 0 0 0 0 0 0 0 1 1 1 1 1
7 7 7 7 6 6 5 5 4 3 3 2 2 2 2 2 2 2 2 2 2 1 1 0 0 0 0 0 0 0 0 0 0 0 1 1 1 1
8 8 8 8 8 8 7 6 5 4 3 3 2 2 3 3 2 2 2 2 2 1 1 1 0 0 0 0 0 0 0 0 0 0 0 0 0 0
8 9 9 10 10 9 8 7 5 4 4 4 3 3 3 3 3 2 2 2 2 2 1 1 1 0 0 0 0 0 0 0 0 0 0 0 0 0
8 8 9 9 10 9 8 7 5 5 4 4 4 4 4 4 3 3 2 2 2 2 2 2 1 1 1 0 0 0 0 0 0 0 0 0 0 0
8 8 8 8 7 7 6 5 5 4 4 4 4 4 4 4 4 3 3 3 3 2 2 2 2 3 3 2 1 0 0 0 0 0 0 0 0 0
7 8 7 6 5 5 4 3 3 3 3 4 4 4 4 4 4 3 3 3 3 3 3 3 3 4 4 3 1 1 0 0 0 0 0 0 0 0
6 6 6 5 5 4 4 3 2 2 2 3 3 3 3 4 4 3 3 3 3 3 3 3 3 3 3 2 1 0 0 0 0 0 0 0 0 0
4 5 5 4 4 4 4 4 3 3 2 2 2 2 2 3 3 3 3 4 5 5 4 4 3 3 3 2 1 0 0 0 0 0 0 0 0 0
4 4 4 4 3 3 3 3 3 3 3 2 2 2 1 1 2 3 3 4 5 5 6 5 4 4 3 3 2 1 0 0 0 0 0 0 0 0
4 4 3 2 2 2 2 2 2 2 3 3 2 2 2 1 2 2 3 4 4 5 6 6 5 4 4 3 3 2 2 1 1 0 0 0 0 0
3 2 2 1 1 1 1 1 1 2 2 3 3 2 2 2 2 3 3 4 4 4 6 6 5 5 5 5 4 4 4 3 2 2 1 0 0 0
2 2 1 1 1 0 0 1 1 1 2 2 2 3 3 3 3 3 4 4 4 4 5 5 5 5 6 6 7 7 7 6 4 3 2 1 1 1
1 1 1 1 0 0 0 0 1 1 2 2 2 3 3 3 3 3 5 5 4 4 4 4 4 4 5 6 8 10 11 9 7 5 4 4 3 2
1 1 1 1 1 1 1 1 1 2 2 2 3 3 3 3 3 4 5 6 5 4 4 3 2 2 3 4 5 7 9 9 8 6 5 6 6 5
2 2 2 2 2 2 2 2 2 2 3 3 3 4 4 3 3 5 6 6 5 4 5 5 3 2 2 2 2 3 4 4 5 5 5 6 6 6
4 4 4 3 3 3 3 3 3 3 3 3 3 4 4 4 4 5 6 5 4 4 6 7 5 3 2 1 1 1 2 2 3 3 4 4 4 4
5 5 5 4 4 3 3 3 2 2 3 3 3 4 4 5 5 5 5 4 4 5 6 7 5 4 2 1 1 1 1 1 2 2 3 3 3 2
4 4 4 4 3 3 3 2 2 2 2 3 3 3 4 5 4 4 4 4 4 5 6 6 5 3 2 1 1 1 1 1 1 1 2 2 2 2
4 4 3 3 3 3 3 2 2 2 2 2 2 3 3 4 4 4 4 3 4 5 6 5 4 3 2 1 1 1 1 1 0 1 1 2 2 2
4 4 3 3 3 3 3 3 2 2 2 2 2 2 2 2 3 3 3 3 4 5 6 4 3 2 1 1 1 2 2 1 1 0 0 1 1 1
3 3 3 3 3 4 4 3 3 2 2 2 2 2 2 2 2 2 2 3 4 6 5 4 2 2 1 1 1 2 2 2 1 0 0 0 0 1
Wind_Speed
4 4 4 3 3 3 3 4 4 5 3 2 3 2 2 2 2 4 3 5 6 5 5 5 4 4 4 4 4 3 3 4 4 4 5 5 5 6
4 4 5 4 3 3 4 4 5 6 5 2 2 2 1 2 3 4 4 6 7 6 6 6 6 5 5 5 5 5 5 5 5 5 5 5 5 6
5 5 5 5 4 4 4 4 4 5 5 4 3 1 3 4 3 4 5 5 5 8 7 6 6 6 6 5 5 5 6 6 6 6 5 5 5 6
5 5 5 4 5 5 4 4 4 4 6 6 4 3 4 4 4 5 5 4 4 7 8 7 7 6 6 6 6 6 6 6 6 6 6 6 6 7
5 5 5 4 5 4 5 5 5 5 5 6 6 3 4 3 4 5 6 4 6 5 9 9 8 8 7 7 7 7 6 6 6 6 7 7 7 7
5 5 5 5 4 5 5 5 5 5 5 6 5 4 4 3 4 5 5 5 5 5 4 5 8 10 9 9 7 7 7 7 7 7 7 7 7 7
5 5 4 3 3 4 5 4 5 5 5 5 5 5 4 3 4 5 5 4 4 4 4 4 5 6 7 9 9 8 7 8 8 8 8 8 8 8
5 5 4 5 4 5 4 5 5 6 6 6 5 5 5 5 4 5 5 5 5 3 4 5 5 5 5 5 6 8 8 8 8 8 8 8 8 8
5 5 5 3 4 5 5 7 7 7 7 8 8 7 6 5 6 7 5 6 6 3 4 6 5 5 5 3 6 7 8 8 8 8 7 8 8 8
6 6 5 5 5 5 6 5 6 6 7 7 7 8 7 6 6 7 7 7 6 5 5 6 5 5 4 4 7 8 8 8 8 8 8 8 8 8
5 5 5 5 2 3 5 6 6 6 5 6 6 7 6 6 6 5 5 6 6 5 4 5 5 5 5 5 5 10 10 9 9 9 8 8 8 8
4 4 4 5 2 3 5 6 6 6 5 4 5 6 7 7 8 7 6 6 6 5 3 4 5 4 5 4 3 4 6 8 10 10 9 8 7 6
4 4 2 4 4 4 6 6 6 6 6 5 5 4 4 4 4 5 5 6 6 5 2 4 5 4 5 5 4 4 4 4 4 6 9 9 9 7
5 4 2 3 4 5 6 5 5 6 6 5 4 4 4 4 3 4 4 5 5 7 6 5 5 5 6 6 5 4 4 4 4 4 4 6 8 10
4 3 2 3 5 6 7 7 6 6 5 5 5 5 4 4 4 3 4 5 7 7 5 6 6 6 6 7 6 5 5 5 4 5 4 4 4 5
6 4 5 7 7 6 5 6 6 5 5 5 5 5 4 4 4 4 4 4 5 5 5 6 6 7 7 7 6 6 6 5 5 5 5 5 5 5
4 4 5 5 5 5 4 4 4 4 5 5 5 5 5 5 5 4 4 5 5 5 4 3 4 5 6 6 7 6 6 6 6 4 5 6 6 5
4 5 5 5 5 4 4 4 4 4 4 5 5 5 5 5 5 4 4 5 5 5 5 4 4 4 5 5 5 7 6 6 5 5 6 7 7 5
5 5 5 5 5 4 4 5 4 4 4 5 5 5 5 5 5 5 5 5 6 6 5 4 4 5 6 6 4 5 6 6 5 5 5 6 7 6
5 5 5 5 5 5 5 5 5 4 4 5 5 5 5 6 6 6 5 5 6 5 5 5 4 5 6 6 5 4 6 6 5 5 6 6 6 5
4 5 5 5 5 5 5 5 5 5 5 5 5 5 5 5 5 6 5 5 6 6 6 5 3 5 5 5 6 5 3 4 5 6 6 6 6 6
5 5 4 5 5 5 4 4 5 4 4 4 4 4 5 5 6 7 6 5 5 5 6 4 3 4 5 6 6 6 5 3 4 7 8 7 5 5
4 4 4 5 5 4 4 5 5 5 4 4 4 4 5 5 5 5 5 5 5 5 5 4 3 4 4 5 6 6 6 6 5 5 5 7 9 8
Wind_Direction
251 242 254 261 256 262 266 270 277 278 265 219 226 194 230 231 176 234 229 175 195 204 207 209 215 222 229 233 236 245 247 238 233 233 232 228 229 234
251 267 267 267 271 260 257 259 264 276 280 285 251 236 266 255 192 237 235 179 194 201 210 216 220 223 223 229 235 238 238 236 234 234 237 238 236 237
250 245 251 269 272 266 254 253 256 263 266 270 263 227 235 263 241 246 238 231 200 189 204 215 222 226 228 231 234 237 239 239 238 236 238 239 239 240
257 258 258 255 255 266 266 261 259 262 263 271 268 249 239 244 250 254 250 241 245 174 192 208 214 223 230 233 236 240 241 240 240 239 240 241 241 244
256 256 259 261 260 262 263 263 260 255 256 262 263 257 249 244 249 250 250 249 253 195 188 201 212 221 227 230 235 239 240 240 239 240 240 241 243 244
256 255 257 260 262 263 258 261 267 266 255 257 260 253 244 237 246 251 247 232 244 246 223 215 207 212 221 223 228 233 235 235 236 238 239 240 241 243
254 255 257 274 292 283 289 284 274 268 263 258 257 258 256 251 252 257 260 257 243 243 247 239 220 223 219 218 219 225 231 232 233 234 235 237 241 243
259 260 253 232 238 233 255 272 282 274 276 272 266 265 263 263 268 265 265 262 261 234 248 256 247 245 238 233 189 201 220 229 233 234 235 236 240 243
260 261 268 264 251 257 233 224 236 244 256 270 274 273 273 273 272 265 262 265 271 269 253 259 250 251 251 225 169 193 212 222 228 231 234 237 239 242
253 253 259 267 269 277 273 269 264 248 241 246 266 272 275 278 267 264 265 258 259 252 246 263 257 256 258 241 184 197 211 219 225 230 234 240 244 245
251 253 257 258 260 275 268 270 273 270 243 241 255 265 276 270 270 268 258 254 259 255 237 260 268 265 259 250 208 196 210 216 222 228 234 239 245 245
250 248 245 258 241 237 260 267 268 273 280 261 248 248 249 237 226 241 256 259 268 265 221 250 267 273 265 248 244 217 220 216 218 224 227 231 236 248
267 258 234 186 217 233 255 265 272 282 279 273 266 259 253 248 235 233 247 259 267 268 266 245 266 262 266 273 262 251 248 248 233 229 220 219 221 238
271 273 269 170 215 236 247 266 271 268 267 270 270 268 265 262 257 252 248 257 265 273 278 269 269 269 267 269 273 265 257 257 256 258 251 213 217 226
276 314 296 233 230 229 233 243 247 252 262 265 268 270 271 272 267 251 244 244 249 254 257 256 262 266 264 268 274 279 278 268 256 258 259 252 249 243
256 246 225 230 239 253 236 225 235 255 267 267 271 272 273 266 258 260 260 258 258 256 238 241 250 259 261 265 272 274 274 273 267 261 265 263 256 250
256 248 249 243 238 239 245 247 248 242 245 258 266 268 266 265 264 261 263 269 267 271 266 242 240 246 256 263 266 268 268 268 270 266 260 266 265 258
241 248 251 254 256 257 256 253 252 257 262 265 267 268 269 269 267 264 262 261 264 265 267 264 256 255 254 246 246 268 270 273 273 265 259 263 268 267
231 250 258 264 269 269 266 266 266 268 271 269 270 273 275 274 274 269 263 261 263 265 267 264 257 259 265 269 250 231 267 272 271 270 266 265 269 273
244 257 261 263 265 268 269 270 271 269 263 266 271 273 272 273 273 271 266 269 271 269 267 263 257 260 268 278 285 273 246 267 276 276 277 277 276 273
252 258 264 267 267 267 271 273 273 273 273 271 272 275 277 276 275 275 272 261 263 266 265 264 262 252 266 271 270 268 262 236 265 278 281 277 279 275
273 274 275 277 277 277 277 277 276 274 273 273 279 279 277 276 272 271 273 270 265 265 269 270 254 249 256 262 270 274 273 262 243 243 246 255 276 284
280 284 288 285 280 277 275 270 269 271 272 275 276 275 275 273 272 271 271 275 277 270 268 267 264 263 265 266 272 275 274 270 261 253 245 219 228 242